Overview Statistics Trail Chart Weather Telemetry Raw packets
 

This is the latest recevied weather packets stored in our database for station/object SQ5AAG-2. If no packets are shown the sender has not sent any weather packets the latest 10 day(s).

<< 107 108 109 110 111 112 113 >>
Time Temp. Humidity Pressure Rain* Wind** Luminosity Snow
1787809433 15.56° C 74% 1009.3 hPa 0 mm - - -
1787809316 18.89° C 67% 1009.3 hPa 0 mm - - -
1787809282 18.89° C 67% 1009.3 hPa 0 mm - - -
1787808981 18.33° C 68% 1009.4 hPa 0 mm - - -
1787808965 15.56° C 74% 1009.3 hPa 0 mm - - -
1787808685 17.78° C 68% 1009.3 hPa 0 mm - - -
1787808380 17.78° C 69% 1009.3 hPa 0 mm - - -
1787808194 15.56° C 76% 1009.3 hPa 0 mm - - -
1787808118 17.22° C 70% 1009.3 hPa 0 mm - - -
1787808081 17.22° C 70% 1009.3 hPa 0 mm - - -
1787807780 16.67° C 71% 1009.1 hPa 0 mm - - -
1787807479 16.67° C 72% 1009.2 hPa 0 mm - - -
1787807179 16.67° C 72% 1009.2 hPa 0 mm - - -
1787807053 14.44° C 79% 1009.4 hPa 0 mm - - -
1787806879 16.11° C 73% 1009.1 hPa 0 mm - - -
1787806632 14.44° C 79% 1009.2 hPa 0 mm - - -
1787806579 15.56° C 74% 1009.3 hPa 0 mm - - -
1787806278 15.56° C 74% 1009.3 hPa 0 mm - - -
1787806267 13.89° C 80% 1009.1 hPa 0 mm - - -
1787805978 15.56° C 75% 1009.2 hPa 0 mm - - -
1787805678 15.56° C 76% 1009.3 hPa 0 mm - - -
1787805571 13.33° C 81% 1009.2 hPa 0 mm - - -
1787805146 12.78° C 80% 1009.2 hPa 0 mm - - -
1787805078 15° C 78% 1009.3 hPa 0 mm - - -
1787804777 14.44° C 79% 1009.4 hPa 0 mm - - -

* Rain latest hour (hover to see other rain measurements)
** Current wind speed in m/s (hover to see current wind gust speed)